HAL5 KLAS-PHNL

Flight info

Callsign HAL5
Flight time N/A
Altitude 34000
Route JOHKR5 KENNO DCT OAK DCT BEBOP R464 BARAZ/N0458F400 R464 BITTA MAGGI3
Aircraft A339/H-SDFGURWY/L

Departure

Time 2026-05-04 03:59
Airport Harry Reid International Airport (KLAS)

Arrival

Time N/A
Airport Daniel K. Inouye International Airport (PHNL)
Time Latitude Longitude Altitude Speed Heading
2026-05-04 03:24 36.08105 -115.14029 2098 ft 0 kts 134°
2026-05-04 03:43 36.08106 -115.14029 2098 ft 0 kts 134°
2026-05-04 03:43 36.08105 -115.14029 2098 ft 0 kts 134°
2026-05-04 03:44 36.08106 -115.14029 2098 ft 0 kts 134°
2026-05-04 03:44 36.08111 -115.14036 2098 ft 2 kts 133°
2026-05-04 03:45 36.08121 -115.14049 2098 ft 2 kts 133°
2026-05-04 03:45 36.08132 -115.14062 2098 ft 2 kts 133°
2026-05-04 03:45 36.08142 -115.14075 2098 ft 2 kts 133°
2026-05-04 03:45 36.08152 -115.14089 2098 ft 2 kts 133°
2026-05-04 03:46 36.08163 -115.14103 2098 ft 2 kts 133°
2026-05-04 03:46 36.08174 -115.14117 2098 ft 2 kts 133°
2026-05-04 03:46 36.08184 -115.14130 2098 ft 2 kts 133°
2026-05-04 03:46 36.08194 -115.14143 2098 ft 2 kts 133°
2026-05-04 03:47 36.08205 -115.14156 2098 ft 2 kts 155°
2026-05-04 03:47 36.08218 -115.14160 2098 ft 0 kts 179°
2026-05-04 03:47 36.08223 -115.14160 2098 ft 0 kts 180°
2026-05-04 03:52 36.08222 -115.14160 2098 ft 0 kts 181°
2026-05-04 03:52 36.08206 -115.14160 2098 ft 4 kts 180°
2026-05-04 03:52 36.08163 -115.14160 2099 ft 8 kts 180°
2026-05-04 03:52 36.08088 -115.14161 2102 ft 11 kts 180°
2026-05-04 03:53 36.08015 -115.14160 2104 ft 9 kts 179°
2026-05-04 03:53 36.07956 -115.14159 2106 ft 8 kts 181°
2026-05-04 03:53 36.07901 -115.14159 2107 ft 7 kts 180°
2026-05-04 03:53 36.07856 -115.14158 2108 ft 6 kts 172°
2026-05-04 03:54 36.07829 -115.14118 2107 ft 7 kts 98°
2026-05-04 03:54 36.07828 -115.14028 2103 ft 13 kts 90°
2026-05-04 03:54 36.07828 -115.13895 2100 ft 16 kts 89°
2026-05-04 03:54 36.07829 -115.13746 2096 ft 18 kts 91°
2026-05-04 03:55 36.07828 -115.13577 2091 ft 20 kts 90°
2026-05-04 03:55 36.07828 -115.13400 2086 ft 21 kts 90°
2026-05-04 03:55 36.07828 -115.13210 2081 ft 19 kts 91°
2026-05-04 03:55 36.07827 -115.13040 2075 ft 21 kts 90°
2026-05-04 03:56 36.07827 -115.12853 2071 ft 22 kts 90°
2026-05-04 03:56 36.07827 -115.12663 2068 ft 22 kts 90°
2026-05-04 03:56 36.07827 -115.12466 2064 ft 22 kts 90°
2026-05-04 03:56 36.07829 -115.12315 2061 ft 13 kts 90°
2026-05-04 03:57 36.07803 -115.12231 2060 ft 10 kts 129°
2026-05-04 03:57 36.07754 -115.12163 2060 ft 10 kts 137°
2026-05-04 03:57 36.07689 -115.12129 2061 ft 9 kts 173°
2026-05-04 03:57 36.07649 -115.12129 2061 ft 2 kts 216°
2026-05-04 03:58 36.07643 -115.12455 2067 ft 66 kts 271°
2026-05-04 03:58 36.07644 -115.13279 2086 ft 123 kts 268°
2026-05-04 03:58 36.07643 -115.14549 2126 ft 169 kts 271°
2026-05-04 03:59 36.07608 -115.16055 2464 ft 181 kts 269°
2026-05-04 03:59 36.07618 -115.17581 3127 ft 178 kts 265°
2026-05-04 03:59 36.07718 -115.19070 3837 ft 174 kts 269°
2026-05-04 03:59 36.07753 -115.20591 4236 ft 184 kts 257°
2026-05-04 04:00 36.07514 -115.22192 4515 ft 196 kts 254°
2026-05-04 04:00 36.07297 -115.23448 4697 ft 206 kts 254°
2026-05-04 04:00 36.06818 -115.25157 4932 ft 216 kts 232°
2026-05-04 04:00 36.05700 -115.26416 5178 ft 228 kts 206°
2026-05-04 04:01 36.04172 -115.27146 5441 ft 243 kts 201°
2026-05-04 04:01 36.02519 -115.27885 5726 ft 257 kts 201°
2026-05-04 04:01 36.00832 -115.28650 6146 ft 264 kts 201°
2026-05-04 04:01 35.99124 -115.29508 6729 ft 265 kts 205°
2026-05-04 04:02 35.97481 -115.30534 7343 ft 265 kts 207°
2026-05-04 04:02 35.95871 -115.31588 7940 ft 265 kts 207°
2026-05-04 04:02 35.94235 -115.32661 8517 ft 267 kts 206°
2026-05-04 04:02 35.92586 -115.33739 9071 ft 270 kts 205°
2026-05-04 04:03 35.90933 -115.34822 9667 ft 272 kts 207°
2026-05-04 04:03 35.89480 -115.36355 10241 ft 282 kts 231°
2026-05-04 04:03 35.88631 -115.38578 10758 ft 301 kts 253°
2026-05-04 04:03 35.88514 -115.41242 11032 ft 323 kts 267°
2026-05-04 04:04 35.88598 -115.44105 11108 ft 345 kts 268°
2026-05-04 04:04 35.88677 -115.47125 11158 ft 368 kts 268°
2026-05-04 04:04 35.88747 -115.50353 11196 ft 380 kts 269°
2026-05-04 04:04 35.88821 -115.53630 11174 ft 383 kts 268°
2026-05-04 04:05 35.88889 -115.56922 11440 ft 390 kts 268°
2026-05-04 04:05 35.88955 -115.60229 12173 ft 389 kts 268°
2026-05-04 04:05 35.89022 -115.63557 12845 ft 391 kts 268°
2026-05-04 04:05 35.89088 -115.66940 13441 ft 394 kts 267°
2026-05-04 04:06 35.89151 -115.70330 14067 ft 396 kts 267°
2026-05-04 04:06 35.89210 -115.73667 14759 ft 396 kts 268°
2026-05-04 04:06 35.89267 -115.77090 15421 ft 397 kts 268°
2026-05-04 04:06 35.89326 -115.80477 16121 ft 397 kts 268°
2026-05-04 04:07 35.89386 -115.83844 16801 ft 396 kts 268°
2026-05-04 04:07 35.89444 -115.87221 17522 ft 395 kts 268°
2026-05-04 04:07 35.89577 -115.90578 18145 ft 398 kts 276°
2026-05-04 04:07 35.90398 -115.93851 18726 ft 406 kts 291°
2026-05-04 04:08 35.91943 -115.96767 19343 ft 416 kts 305°
2026-05-04 04:08 35.94006 -115.99339 19982 ft 419 kts 310°
2026-05-04 04:08 35.96072 -116.01853 20568 ft 419 kts 309°
2026-05-04 04:08 35.98135 -116.04380 21057 ft 421 kts 308°
2026-05-04 04:09 36.00186 -116.06899 21600 ft 421 kts 308°
2026-05-04 04:09 36.02280 -116.09480 22094 ft 422 kts 308°